KF4ZNO-13 Weather Reports


Display with metric or nautical units.
time (UTC)temp
F
wind
direction
speed
MPH
gust
MPH
rain 1hr
in
rain 24hr
in
rain mn
in
humidity
%
barometer
mb
20260504081018 50 0.0 0.0 0.00 0.00 0.00 85 1020.2
20260504050020 55 0.0 0.0 0.00 0.00 0.00 78 1021.0
20260504045019 54 0.0 0.0 0.00 0.00 0.00 78 1021.0
20260504044018 54 0.0 0.0 0.00 0.00 0.00 77 1021.0
20260504043038 54 0.0 0.0 0.00 0.00 0.00 77 1020.9
20260504042020 54 0.0 0.0 0.00 0.00 0.00 77 1020.9
20260504041020 55 0.0 0.0 0.00 0.00 0.00 76 1020.8
20260504040019 55 0.0 0.0 0.00 0.00 0.00 76 1020.9
20260504035019 56 0.0 0.0 0.00 0.00 0.00 76 1020.8
20260504034020 56 0.0 0.0 0.00 0.00 0.00 74 1020.9
20260504033020 57 0.0 0.0 0.00 0.00 0.00 74 1020.9
20260504032038 57 0.0 0.0 0.00 0.00 0.00 73 1021.0
20260504031040 57 0.0 0.0 0.00 0.00 0.00 72 1020.8
20260504030020 57 0.0 0.0 0.00 0.00 0.00 73 1020.8
20260504025018 58 0.0 0.0 0.00 0.00 0.00 70 1020.8
20260504024020 58 0.0 0.0 0.00 0.00 0.00 68 1020.5
20260504023020 58 0.0 0.0 0.00 0.00 0.00 68 1020.5
20260504022018 59 0.0 0.0 0.00 0.00 0.00 67 1020.4
20260504021018 60 0.0 0.0 0.00 0.00 0.00 67 1020.3
20260504020020 60 0.0 0.0 0.00 0.00 0.00 69 1020.3
20260504015020 59 0.0 0.0 0.00 0.00 0.00 69 1020.2
20260504014019 60 0.0 0.0 0.00 0.00 0.00 66 1020.1
20260504013020 60 0.0 0.0 0.00 0.00 0.00 66 1020.0
20260504012020 61 0.0 0.0 0.00 0.00 0.00 64 1019.7
20260504011020 62 0.0 0.0 0.00 0.00 0.00 63 1019.4
20260504010020 63 0.0 0.0 0.00 0.00 0.00 58 1019.3
20260504005020 63 0.0 0.0 0.00 0.00 0.00 60 1019.5
20260504004020 64 0.0 0.0 0.00 0.00 0.00 55 1019.3
20260504003020 65 0.0 0.0 0.00 0.00 0.00 57 1019.2
20260504002040 67 0.0 0.0 0.00 0.00 0.00 54 1019.1
20260504001020 68 0.0 0.0 0.00 0.00 0.00 47 1019.2
20260504000020 68 0.0 0.0 0.00 0.00 0.00 47 1019.1
20260503235020 69 0.0 0.0 0.00 0.00 0.00 46 1019.1
20260503234020 69 0.0 0.0 0.00 0.00 0.00 46 1019.1
20260503233019 70 0.0 0.0 0.00 0.00 0.00 45 1019.1
20260503232020 71 0.0 0.0 0.00 0.00 0.00 47 1019.1
20260503231020 71 0.0 0.0 0.00 0.00 0.00 48 1019.0
20260503230020 72 0.0 0.0 0.00 0.00 0.00 42 1018.9
20260503225019 73 0.0 0.0 0.00 0.00 0.00 40 1018.8
20260503224020 73 0.0 0.0 0.00 0.00 0.00 43 1018.7
20260503223020 73 0.0 0.0 0.00 0.00 0.00 43 1018.8
20260503222019 74 0.0 0.0 0.00 0.00 0.00 42 1018.9
20260503221019 74 0.0 0.0 0.00 0.00 0.00 40 1019.0
20260503220019 76 0.0 0.0 0.00 0.00 0.00 38 1019.0
20260503215019 76 0.0 0.0 0.00 0.00 0.00 39 1019.1
20260503214019 75 0.0 0.0 0.00 0.00 0.00 36 1019.3
20260503213019 75 0.0 0.0 0.00 0.00 0.00 38 1019.2
20260503212019 77 0.0 0.0 0.00 0.00 0.00 38 1019.3
20260503211020 77 0.0 0.0 0.00 0.00 0.00 34 1019.4
20260503210020 76 0.0 0.0 0.00 0.00 0.00 37 1019.4
20260503205019 76 0.0 0.0 0.00 0.00 0.00 36 1019.6
20260503204019 76 0.0 0.0 0.00 0.00 0.00 33 1019.9
20260503203020 76 0.0 0.0 0.00 0.00 0.00 31 1019.9
20260503202020 76 0.0 0.0 0.00 0.00 0.00 31 1020.0
20260503201020 77 0.0 0.0 0.00 0.00 0.00 35 1020.0
20260503200059 76 0.0 0.0 0.00 0.00 0.00 29 1020.0
20260503195020 77 0.0 0.0 0.00 0.00 0.00 30 1020.4
20260503194019 77 0.0 0.0 0.00 0.00 0.00 34 1020.7
20260503193019 76 0.0 0.0 0.00 0.00 0.00 34 1020.9
20260503192019 76 0.0 0.0 0.00 0.00 0.00 34 1021.1
20260503191039 76 0.0 0.0 0.00 0.00 0.00 32 1021.3
20260503190019 76 0.0 0.0 0.00 0.00 0.00 33 1021.4
20260503185019 76 0.0 0.0 0.00 0.00 0.00 35 1021.5
20260503184019 76 0.0 0.0 0.00 0.00 0.00 34 1021.7
20260503183019 77 0.0 0.0 0.00 0.00 0.00 38 1021.7
20260503182020 74 0.0 0.0 0.00 0.00 0.00 36 1021.7
20260503181019 75 0.0 0.0 0.00 0.00 0.00 35 1021.7
20260503180040 75 0.0 0.0 0.00 0.00 0.00 36 1021.7
20260503175019 74 0.0 0.0 0.00 0.00 0.00 32 1021.7
20260503174039 73 0.0 0.0 0.00 0.00 0.00 33 1021.9
20260503173039 74 0.0 0.0 0.00 0.00 0.00 36 1021.9
20260503172119 74 0.0 0.0 0.00 0.00 0.00 34 1022.1
20260503171019 74 0.0 0.0 0.00 0.00 0.00 35 1022.2
20260503150159 68 0.0 0.0 0.00 0.00 0.00 47 1023.4
20260503131039 52 0.0 0.0 0.00 0.01 0.00 89 1022.3